Location: Unspecified
(48.8656°N, 0.0000°E)
Time: 03:02:55
(UTC+00:00)

Vanguard 3 - Pass Details

Date: 21 June 2019
Orbit: 507 x 3264 km, 33.4° (Epoch: 15 July)

Event Time Altitude Azimuth Distance (km) Brightness Sun altitude
Rises 11:04:25 0° 220° (SW) 6,240 11.8 62.2°
Reaches altitude 10° 11:10:27 10° 207° (SSW) 4,695 11.4 62.6°
Maximum altitude 11:18:22 20° 167° (SSE) 3,125 11.0 63.2°
Drops below altitude 10° 11:24:02 10° 124° (ESE) 3,204 10.7 63.5°
Sets 11:27:08 0° 107° (ESE) 3,796 10.8 63.7°
